Location: Helsinki
(60.1699°N, 24.9384°E)
Time: 23:59:58
(UTC+02:00)

Altair - Pass Details

Date: 04 November 2020
Orbit: 1502 x 1682 km, 47.2° (Epoch: 25 November)

Event Time Altitude Azimuth Distance (km) Brightness Sun altitude
Rises 03:02:05 0° 197° (SSW) 4,631 - -34.9°
Reaches altitude 10° 03:06:09 10° 181° (S) 3,663 - -34.5°
Exits shadow 03:09:32 17° 160° (SSE) 3,136 9.0 -34.2°
Maximum altitude 03:12:07 19° 140° (SE) 3,011 9.0 -33.9°
Drops below altitude 10° 03:18:10 10° 99° (E) 3,737 10.1 -33.3°
Sets 03:22:21 0° 84° (E) 4,754 11.0 -32.8°
